CMP744 SBGR-MPTO

Flight info

Callsign CMP744
Flight time 6h 17m
Altitude 32000
Route GERTU UL201 BUPNA/N0462F340 UL201 ORIBO UP527 DADKA UM549 SIGUN ISOKO2C
Aircraft B38M/M-SDE1FGHILORVWXY/HB1

Departure

Time 2026-05-04 12:17
Airport São Paulo/Guarulhos–Governor André Franco Montoro International Airport (SBGR)

Arrival

Time 2026-05-04 18:34
Airport Tocumen International Airport (MPTO)
Time Latitude Longitude Altitude Speed Heading
2026-05-04 11:50 -23.42759 -46.47423 2467 ft 0 kts 73°
2026-05-04 12:06 -23.42765 -46.47445 2456 ft 4 kts 73°
2026-05-04 12:06 -23.42771 -46.47469 2468 ft 4 kts 75°
2026-05-04 12:06 -23.42771 -46.47495 2467 ft 4 kts 121°
2026-05-04 12:07 -23.42752 -46.47512 2468 ft 4 kts 159°
2026-05-04 12:07 -23.42733 -46.47518 2470 ft 0 kts 166°
2026-05-04 12:11 -23.42743 -46.47515 2468 ft 5 kts 166°
2026-05-04 12:11 -23.42812 -46.47512 2469 ft 15 kts 172°
2026-05-04 12:11 -23.42937 -46.47462 2469 ft 23 kts 160°
2026-05-04 12:11 -23.43038 -46.47522 2468 ft 19 kts 257°
2026-05-04 12:12 -23.43074 -46.47663 2469 ft 19 kts 252°
2026-05-04 12:12 -23.43110 -46.47797 2469 ft 18 kts 253°
2026-05-04 12:12 -23.43146 -46.47926 2470 ft 18 kts 253°
2026-05-04 12:12 -23.43179 -46.48049 2471 ft 16 kts 254°
2026-05-04 12:13 -23.43208 -46.48159 2472 ft 14 kts 251°
2026-05-04 12:14 -23.43416 -46.48282 2463 ft 14 kts 83°
2026-05-04 12:15 -23.43399 -46.48225 2465 ft 0 kts 71°
2026-05-04 12:15 -23.43341 -46.48023 2466 ft 59 kts 73°
2026-05-04 12:16 -23.43165 -46.47385 2463 ft 115 kts 73°
2026-05-04 12:16 -23.42890 -46.46378 2470 ft 161 kts 73°
2026-05-04 12:16 -23.42561 -46.45189 2604 ft 165 kts 73°
2026-05-04 12:16 -23.42220 -46.43975 3047 ft 175 kts 72°
2026-05-04 12:17 -23.41834 -46.42644 3389 ft 195 kts 72°
2026-05-04 12:17 -23.41390 -46.41193 3888 ft 205 kts 69°
2026-05-04 12:17 -23.40856 -46.39773 4597 ft 202 kts 64°
2026-05-04 12:17 -23.40422 -46.38286 5119 ft 210 kts 71°
2026-05-04 12:18 -23.40021 -46.36746 5681 ft 214 kts 68°
2026-05-04 12:18 -23.39327 -46.35251 5981 ft 230 kts 54°
2026-05-04 12:18 -23.38453 -46.33696 6214 ft 256 kts 56°
2026-05-04 12:18 -23.37493 -46.32003 6794 ft 261 kts 55°
2026-05-04 12:19 -23.36512 -46.30288 7284 ft 276 kts 56°
2026-05-04 12:19 -23.35458 -46.28458 7734 ft 290 kts 56°
2026-05-04 12:19 -23.34388 -46.26605 8580 ft 290 kts 56°
2026-05-04 12:19 -23.33297 -46.24718 9210 ft 298 kts 56°
2026-05-04 12:20 -23.32187 -46.22804 9917 ft 302 kts 56°
2026-05-04 12:20 -23.31061 -46.20861 10502 ft 308 kts 57°
2026-05-04 12:20 -23.29884 -46.18832 10781 ft 327 kts 57°
2026-05-04 12:20 -23.28631 -46.16675 10990 ft 346 kts 56°
2026-05-04 12:21 -23.27317 -46.14413 11332 ft 360 kts 57°
2026-05-04 12:21 -23.25988 -46.12123 11912 ft 364 kts 57°
2026-05-04 12:21 -23.24624 -46.09775 12464 ft 370 kts 57°
2026-05-04 12:21 -23.23241 -46.07399 13076 ft 373 kts 57°
2026-05-04 12:22 -23.21691 -46.05123 13597 ft 378 kts 43°
2026-05-04 12:22 -23.19559 -46.03490 14168 ft 378 kts 23°
2026-05-04 12:22 -23.17059 -46.02574 14568 ft 379 kts
2026-05-04 12:22 -23.14467 -46.02521 15134 ft 373 kts 348°
2026-05-04 12:23 -23.11985 -46.03294 15528 ft 370 kts 329°
2026-05-04 12:23 -23.09881 -46.04819 16111 ft 362 kts 313°
2026-05-04 12:23 -23.08116 -46.06781 16555 ft 364 kts 309°
2026-05-04 12:23 -23.06419 -46.08819 17095 ft 363 kts 308°
2026-05-04 12:24 -23.04759 -46.10888 17600 ft 364 kts 307°
2026-05-04 12:24 -23.03111 -46.12984 18130 ft 365 kts 306°
2026-05-04 12:24 -23.01471 -46.15091 18594 ft 366 kts 306°
2026-05-04 12:24 -22.99833 -46.17209 19015 ft 368 kts 306°
2026-05-04 12:25 -22.98181 -46.19353 19372 ft 371 kts 306°
2026-05-04 12:25 -22.96547 -46.21475 19761 ft 373 kts 306°
2026-05-04 12:25 -22.94855 -46.23672 20130 ft 375 kts 306°
2026-05-04 12:25 -22.93198 -46.25824 20481 ft 378 kts 306°
2026-05-04 12:26 -22.91514 -46.28009 20852 ft 380 kts 305°
2026-05-04 12:26 -22.89903 -46.30286 21193 ft 378 kts 295°
2026-05-04 12:26 -22.88735 -46.32837 21566 ft 378 kts 292°
2026-05-04 12:26 -22.87566 -46.35408 21901 ft 381 kts 292°
2026-05-04 12:27 -22.86401 -46.38001 22277 ft 383 kts 292°
2026-05-04 12:27 -22.85633 -46.39719 22492 ft 385 kts 292°
2026-05-04 12:27 -22.84461 -46.42343 22852 ft 387 kts 292°
2026-05-04 12:27 -22.83287 -46.44976 23220 ft 389 kts 292°
2026-05-04 12:28 -22.82107 -46.47622 23573 ft 391 kts 291°
2026-05-04 12:28 -22.80916 -46.50288 23886 ft 393 kts 292°
2026-05-04 12:28 -22.79722 -46.52965 24200 ft 395 kts 291°
2026-05-04 12:28 -22.78523 -46.55648 24520 ft 396 kts 291°
2026-05-04 12:29 -22.77321 -46.58338 24811 ft 398 kts 291°
2026-05-04 12:29 -22.76111 -46.61044 25083 ft 400 kts 291°
2026-05-04 12:29 -22.74897 -46.63755 25396 ft 401 kts 291°
2026-05-04 12:29 -22.73678 -46.66478 25687 ft 402 kts 291°
2026-05-04 12:30 -22.72461 -46.69196 25976 ft 404 kts 291°
2026-05-04 12:30 -22.71235 -46.71930 26263 ft 405 kts 291°
2026-05-04 12:30 -22.69999 -46.74687 26549 ft 406 kts 291°
2026-05-04 12:30 -22.68764 -46.77440 26815 ft 408 kts 291°
2026-05-04 12:31 -22.67521 -46.80207 27070 ft 409 kts 291°
2026-05-04 12:31 -22.66275 -46.82972 27376 ft 409 kts 291°
2026-05-04 12:31 -22.65023 -46.85750 27641 ft 411 kts 291°
2026-05-04 12:31 -22.63768 -46.88530 27897 ft 412 kts 291°
2026-05-04 12:32 -22.62509 -46.91320 28159 ft 413 kts 291°
2026-05-04 12:32 -22.59985 -46.96920 28653 ft 416 kts 291°
2026-05-04 12:32 -22.58717 -46.99734 28872 ft 417 kts 291°
2026-05-04 12:33 -22.57439 -47.02566 29097 ft 419 kts 291°
2026-05-04 12:33 -22.56160 -47.05399 29353 ft 420 kts 291°
2026-05-04 12:33 -22.54994 -47.08286 29563 ft 416 kts 282°
2026-05-04 12:33 -22.54252 -47.11307 29751 ft 416 kts 281°
2026-05-04 12:34 -22.53498 -47.14292 29998 ft 417 kts 281°
2026-05-04 12:34 -22.52743 -47.17316 30296 ft 416 kts 281°
2026-05-04 12:34 -22.51994 -47.20321 30559 ft 415 kts 281°
2026-05-04 12:34 -22.51246 -47.23329 30813 ft 414 kts 281°
2026-05-04 12:35 -22.50497 -47.26338 31075 ft 413 kts 281°
2026-05-04 12:35 -22.49750 -47.29337 31322 ft 413 kts 281°
2026-05-04 12:35 -22.49004 -47.32329 31589 ft 411 kts 281°
2026-05-04 12:35 -22.48260 -47.35310 31841 ft 410 kts 281°
2026-05-04 12:36 -22.47516 -47.38289 32107 ft 409 kts 281°
2026-05-04 12:36 -22.46772 -47.41264 32218 ft 410 kts 281°
2026-05-04 12:36 -22.46033 -47.44220 32208 ft 408 kts 281°
2026-05-04 12:37 -22.44551 -47.50135 32212 ft 408 kts 281°
2026-05-04 12:37 -22.42722 -47.55935 32185 ft 414 kts 296°
2026-05-04 12:38 -22.38904 -47.60737 32185 ft 427 kts 306°
2026-05-04 12:38 -22.34809 -47.65400 32217 ft 428 kts 307°
2026-05-04 12:39 -22.30676 -47.70026 32210 ft 428 kts 307°
2026-05-04 12:39 -22.26560 -47.74613 32196 ft 427 kts 307°
2026-05-04 12:40 -22.22401 -47.79246 32206 ft 427 kts 307°
2026-05-04 12:40 -22.18277 -47.83834 32200 ft 429 kts 307°
2026-05-04 12:41 -22.14127 -47.88447 32198 ft 429 kts 307°
2026-05-04 12:41 -22.09963 -47.93070 32197 ft 429 kts 307°
2026-05-04 12:42 -22.05806 -47.97682 32185 ft 428 kts 307°
2026-05-04 12:42 -22.01643 -48.02298 32198 ft 429 kts 307°
2026-05-04 12:43 -21.97512 -48.06873 32182 ft 429 kts 307°
2026-05-04 12:43 -21.93338 -48.11492 32176 ft 430 kts 307°
2026-05-04 12:44 -21.89165 -48.16106 32189 ft 430 kts 307°
2026-05-04 12:44 -21.85010 -48.20694 32179 ft 430 kts 307°
2026-05-04 12:45 -21.80838 -48.25298 32176 ft 430 kts 307°
2026-05-04 12:45 -21.76644 -48.29921 32178 ft 431 kts 307°
2026-05-04 12:46 -21.72458 -48.34532 32152 ft 431 kts 307°
2026-05-04 12:46 -21.68272 -48.39139 32172 ft 431 kts 307°
2026-05-04 12:47 -21.64087 -48.43740 32167 ft 430 kts 307°
2026-05-04 12:47 -21.59893 -48.48347 32173 ft 432 kts 307°
2026-05-04 12:48 -21.55695 -48.52955 32168 ft 431 kts 307°
2026-05-04 12:48 -21.51492 -48.57564 32163 ft 431 kts 307°
2026-05-04 12:49 -21.47318 -48.62137 32162 ft 431 kts 307°
2026-05-04 12:49 -21.43122 -48.66731 32164 ft 431 kts 307°
2026-05-04 12:50 -21.38915 -48.71331 32163 ft 432 kts 307°
2026-05-04 12:50 -21.34704 -48.75933 32138 ft 432 kts 307°
2026-05-04 12:51 -21.30488 -48.80536 32159 ft 432 kts 307°
2026-05-04 12:51 -21.26276 -48.85131 32162 ft 432 kts 307°
2026-05-04 12:52 -21.22062 -48.89726 32161 ft 432 kts 307°
2026-05-04 12:52 -21.17873 -48.94297 32151 ft 432 kts 307°
2026-05-04 12:53 -21.13648 -48.98904 32151 ft 433 kts 308°
2026-05-04 12:53 -21.09431 -49.03498 32154 ft 433 kts 307°
2026-05-04 12:54 -21.05209 -49.08095 32160 ft 433 kts 308°
2026-05-04 12:54 -21.00983 -49.12691 32155 ft 433 kts 307°
2026-05-04 12:55 -20.96750 -49.17291 32138 ft 434 kts 308°
2026-05-04 12:55 -20.92514 -49.21890 32152 ft 435 kts 308°
2026-05-04 12:56 -20.88293 -49.26469 32152 ft 434 kts 308°
2026-05-04 12:56 -20.84051 -49.31068 32155 ft 435 kts 308°
2026-05-04 12:57 -20.79797 -49.35674 32158 ft 435 kts 308°
2026-05-04 12:57 -20.75547 -49.40274 32147 ft 436 kts 308°
2026-05-04 12:58 -20.71278 -49.44889 32151 ft 436 kts 308°
2026-05-04 12:58 -20.67008 -49.49502 32154 ft 436 kts 308°
2026-05-04 12:59 -20.62741 -49.54108 32148 ft 436 kts 308°
2026-05-04 12:59 -20.58465 -49.58719 32124 ft 437 kts 308°
2026-05-04 13:00 -20.54191 -49.63325 32135 ft 438 kts 308°
2026-05-04 13:00 -20.49902 -49.67942 32139 ft 438 kts 308°
2026-05-04 13:01 -20.45648 -49.72518 32140 ft 438 kts 308°
2026-05-04 13:01 -20.41353 -49.77134 32134 ft 438 kts 308°
2026-05-04 13:02 -20.37069 -49.81735 32120 ft 439 kts 308°
2026-05-04 13:02 -20.32756 -49.86363 32130 ft 439 kts 308°
2026-05-04 13:03 -20.28442 -49.90987 32124 ft 439 kts 308°
2026-05-04 13:03 -20.24131 -49.95605 32122 ft 439 kts 308°
2026-05-04 13:04 -20.19851 -50.00187 32128 ft 440 kts 308°
2026-05-04 13:04 -20.15534 -50.04803 32129 ft 441 kts 309°
2026-05-04 13:05 -20.11198 -50.09437 32118 ft 441 kts 309°
2026-05-04 13:05 -20.06866 -50.14063 32124 ft 441 kts 309°
2026-05-04 13:06 -20.02541 -50.18677 32127 ft 441 kts 309°
2026-05-04 13:06 -19.98202 -50.23300 32123 ft 442 kts 309°
2026-05-04 13:07 -19.93854 -50.27929 32118 ft 442 kts 309°
2026-05-04 13:07 -19.89508 -50.32553 32112 ft 442 kts 309°
2026-05-04 13:08 -19.85171 -50.37163 32113 ft 442 kts 309°
2026-05-04 13:08 -19.80824 -50.41780 32118 ft 442 kts 309°
2026-05-04 13:09 -19.76470 -50.46401 32111 ft 443 kts 309°
2026-05-04 13:09 -19.72133 -50.51000 32116 ft 443 kts 309°
2026-05-04 13:10 -19.67764 -50.55629 32112 ft 443 kts 309°
2026-05-04 13:10 -19.63244 -50.60106 32121 ft 445 kts 311°
2026-05-04 13:11 -19.58670 -50.64545 32115 ft 445 kts 311°
2026-05-04 13:11 -19.54106 -50.68985 32108 ft 445 kts 311°
2026-05-04 13:12 -19.49578 -50.73385 32110 ft 445 kts 311°
2026-05-04 13:12 -19.45008 -50.77823 32108 ft 445 kts 311°
2026-05-04 13:13 -19.40435 -50.82260 32105 ft 445 kts 311°
2026-05-04 13:13 -19.35866 -50.86690 32084 ft 445 kts 312°
2026-05-04 13:14 -19.32071 -50.90368 32109 ft 446 kts 312°
2026-05-04 13:14 -19.27491 -50.94801 32110 ft 446 kts 312°
2026-05-04 13:15 -19.22912 -50.99232 32108 ft 446 kts 312°
2026-05-04 13:15 -19.18334 -51.03657 32108 ft 446 kts 312°
2026-05-04 13:16 -19.13752 -51.08082 32099 ft 445 kts 312°
2026-05-04 13:16 -19.09178 -51.12494 32105 ft 445 kts 312°
2026-05-04 13:17 -19.04603 -51.16903 32110 ft 445 kts 312°
2026-05-04 13:17 -19.00022 -51.21314 32106 ft 445 kts 312°
2026-05-04 13:18 -18.95450 -51.25713 32108 ft 445 kts 312°
2026-05-04 13:18 -18.90900 -51.30087 32106 ft 445 kts 312°
2026-05-04 13:19 -18.86318 -51.34489 32104 ft 445 kts 312°
2026-05-04 13:19 -18.81737 -51.38887 32108 ft 445 kts 312°
2026-05-04 13:20 -18.77165 -51.43272 32112 ft 445 kts 312°
2026-05-04 13:20 -18.72583 -51.47664 32095 ft 445 kts 313°
2026-05-04 13:21 -18.67992 -51.52061 32109 ft 446 kts 313°
2026-05-04 13:21 -18.63402 -51.56454 32107 ft 445 kts 313°
2026-05-04 13:22 -18.58822 -51.60833 32107 ft 446 kts 313°
2026-05-04 13:22 -18.54250 -51.65201 32109 ft 446 kts 313°
2026-05-04 13:23 -18.49652 -51.69592 32098 ft 446 kts 313°
2026-05-04 13:23 -18.45025 -51.74006 32111 ft 448 kts 313°
2026-05-04 13:24 -18.40410 -51.78400 32112 ft 448 kts 313°
2026-05-04 13:24 -18.35784 -51.82803 32116 ft 448 kts 313°
2026-05-04 13:25 -18.28890 -51.89357 32104 ft 447 kts 313°
2026-05-04 13:25 -18.24255 -51.93759 32104 ft 449 kts 313°
2026-05-04 13:26 -18.19625 -51.98154 32107 ft 449 kts 313°
2026-05-04 13:26 -18.14982 -52.02557 32106 ft 449 kts 313°
2026-05-04 13:27 -18.10339 -52.06957 32111 ft 449 kts 313°
2026-05-04 13:27 -18.05699 -52.11351 32087 ft 449 kts 313°
2026-05-04 13:28 -18.01056 -52.15745 32101 ft 450 kts 313°
2026-05-04 13:28 -17.96472 -52.20215 32101 ft 449 kts 312°
2026-05-04 13:29 -17.91899 -52.24686 32107 ft 449 kts 312°
2026-05-04 13:29 -17.87327 -52.29149 32105 ft 449 kts 312°
2026-05-04 13:30 -17.82788 -52.33577 32100 ft 449 kts 312°
2026-05-04 13:30 -17.78205 -52.38044 32098 ft 449 kts 312°
2026-05-04 13:31 -17.73629 -52.42502 32095 ft 449 kts 312°
2026-05-04 13:31 -17.69045 -52.46963 32095 ft 449 kts 312°
2026-05-04 13:32 -17.64474 -52.51409 32098 ft 449 kts 312°
2026-05-04 13:32 -17.59894 -52.55860 32084 ft 449 kts 313°
2026-05-04 13:33 -17.55340 -52.60284 32094 ft 449 kts 313°
2026-05-04 13:33 -17.50758 -52.64731 32091 ft 449 kts 313°
2026-05-04 13:34 -17.46172 -52.69179 32094 ft 449 kts 313°
2026-05-04 13:34 -17.41584 -52.73625 32094 ft 449 kts 313°
2026-05-04 13:35 -17.34694 -52.80297 32098 ft 451 kts 313°
2026-05-04 13:36 -17.30085 -52.84756 32085 ft 451 kts 313°
2026-05-04 13:36 -17.25480 -52.89208 32092 ft 451 kts 313°
2026-05-04 13:37 -17.20900 -52.93632 32086 ft 451 kts 313°
2026-05-04 13:37 -17.16264 -52.98107 32087 ft 450 kts 313°
2026-05-04 13:38 -17.11685 -53.02525 32087 ft 452 kts 313°
2026-05-04 13:38 -17.07053 -53.06990 32086 ft 452 kts 313°
2026-05-04 13:39 -17.02425 -53.11449 32084 ft 452 kts 313°
2026-05-04 13:39 -16.97798 -53.15903 32084 ft 452 kts 313°
2026-05-04 13:40 -16.93182 -53.20343 32074 ft 452 kts 313°
2026-05-04 13:40 -16.88545 -53.24801 32081 ft 454 kts 313°
2026-05-04 13:41 -16.83905 -53.29265 32080 ft 453 kts 313°
2026-05-04 13:41 -16.79284 -53.33740 32072 ft 453 kts 313°
2026-05-04 13:42 -16.72356 -53.40441 32080 ft 453 kts 313°
2026-05-04 13:42 -16.67725 -53.44915 32068 ft 453 kts 313°
2026-05-04 13:43 -16.63087 -53.49394 32072 ft 454 kts 313°
2026-05-04 13:43 -16.58470 -53.53849 32062 ft 454 kts 313°
2026-05-04 13:44 -16.53830 -53.58323 32073 ft 455 kts 313°
2026-05-04 13:44 -16.49168 -53.62775 32056 ft 455 kts 313°
2026-05-04 13:45 -16.44496 -53.67215 32069 ft 455 kts 313°
2026-05-04 13:45 -16.39808 -53.71669 32063 ft 456 kts 313°
2026-05-04 13:46 -16.35133 -53.76109 32053 ft 456 kts 313°
2026-05-04 13:46 -16.30468 -53.80533 32052 ft 456 kts 313°
2026-05-04 13:47 -16.25776 -53.84977 32050 ft 456 kts 313°
2026-05-04 13:47 -16.21086 -53.89416 32040 ft 456 kts 314°
2026-05-04 13:48 -16.16388 -53.93860 32053 ft 458 kts 314°
2026-05-04 13:48 -16.11680 -53.98310 32045 ft 457 kts 314°
2026-05-04 13:49 -16.06968 -54.02761 32047 ft 457 kts 314°
2026-05-04 13:49 -16.02289 -54.07178 32048 ft 457 kts 314°
2026-05-04 13:50 -15.97582 -54.11619 32056 ft 457 kts 314°
2026-05-04 13:50 -15.92672 -54.15876 32058 ft 461 kts 316°
2026-05-04 13:51 -15.87723 -54.20120 32047 ft 461 kts 316°
2026-05-04 13:51 -15.82773 -54.24372 32046 ft 461 kts 316°
2026-05-04 13:52 -15.75360 -54.30736 32054 ft 461 kts 316°
2026-05-04 13:53 -15.70420 -54.34973 32046 ft 462 kts 317°
2026-05-04 13:53 -15.65459 -54.39226 32053 ft 463 kts 317°
2026-05-04 13:54 -15.58043 -54.45578 32054 ft 462 kts 317°
2026-05-04 13:55 -15.50590 -54.51954 32057 ft 462 kts 317°
2026-05-04 13:55 -15.43148 -54.58316 32060 ft 462 kts 317°
2026-05-04 13:56 -15.38208 -54.62536 32062 ft 462 kts 317°
2026-05-04 13:57 -15.30756 -54.68896 32061 ft 463 kts 317°
2026-05-04 13:58 -15.20824 -54.77364 32053 ft 464 kts 317°
2026-05-04 13:58 -15.13328 -54.83747 32063 ft 465 kts 317°
2026-05-04 13:59 -15.08335 -54.87996 32057 ft 465 kts 317°
2026-05-04 14:00 -15.00851 -54.94359 32054 ft 464 kts 317°
2026-05-04 14:00 -14.94198 -55.00011 32059 ft 466 kts 317°
2026-05-04 14:01 -14.89188 -55.04264 32055 ft 466 kts 317°
2026-05-04 14:02 -14.81849 -55.10826 32049 ft 465 kts 316°
2026-05-04 14:02 -14.77010 -55.15195 32047 ft 465 kts 316°
2026-05-04 14:03 -14.72130 -55.19596 32048 ft 465 kts 316°
2026-05-04 14:03 -14.67248 -55.23996 32048 ft 466 kts 316°
2026-05-04 14:04 -14.59919 -55.30596 32045 ft 466 kts 316°
2026-05-04 14:04 -14.55034 -55.34993 32044 ft 466 kts 316°
2026-05-04 14:05 -14.47733 -55.41559 32045 ft 466 kts 316°
2026-05-04 14:06 -14.42836 -55.45958 32048 ft 468 kts 316°
2026-05-04 14:06 -14.37924 -55.50370 32043 ft 468 kts 316°
2026-05-04 14:07 -14.33010 -55.54780 32045 ft 468 kts 316°
2026-05-04 14:07 -14.28108 -55.59176 32040 ft 467 kts 316°
2026-05-04 14:08 -14.23195 -55.63581 32043 ft 467 kts 316°
2026-05-04 14:08 -14.18501 -55.68193 32046 ft 467 kts 313°
2026-05-04 14:09 -14.11497 -55.75220 32041 ft 468 kts 314°
2026-05-04 14:10 -14.04520 -55.82193 32037 ft 468 kts 314°
2026-05-04 14:10 -13.99853 -55.86855 32040 ft 468 kts 314°
2026-05-04 14:11 -13.95178 -55.91520 32041 ft 468 kts 314°
2026-05-04 14:11 -13.88165 -55.98515 32041 ft 468 kts 314°
2026-05-04 14:12 -13.83484 -56.03180 32042 ft 468 kts 314°
2026-05-04 14:13 -13.76487 -56.10148 32042 ft 468 kts 314°
2026-05-04 14:13 -13.71814 -56.14812 32039 ft 468 kts 314°
2026-05-04 14:14 -13.67138 -56.19476 32032 ft 469 kts 314°
2026-05-04 14:14 -13.60100 -56.26492 32037 ft 470 kts 314°
2026-05-04 14:15 -13.50721 -56.35830 32037 ft 469 kts 314°
2026-05-04 14:16 -13.43711 -56.42804 32031 ft 469 kts 314°
2026-05-04 14:17 -13.36668 -56.49804 32032 ft 470 kts 315°
2026-05-04 14:18 -13.29620 -56.56803 32028 ft 470 kts 315°
2026-05-04 14:19 -13.20261 -56.66088 32032 ft 469 kts 315°
2026-05-04 14:19 -13.15565 -56.70742 32027 ft 470 kts 315°
2026-05-04 14:20 -13.10855 -56.75408 32027 ft 471 kts 315°
2026-05-04 14:20 -13.06141 -56.80076 32025 ft 471 kts 315°
2026-05-04 14:21 -12.99079 -56.87063 32020 ft 471 kts 315°
2026-05-04 14:21 -12.94355 -56.91733 32023 ft 471 kts 315°
2026-05-04 14:22 -12.89670 -56.96364 32022 ft 470 kts 315°
2026-05-04 14:22 -12.84956 -57.01019 32022 ft 470 kts 315°
2026-05-04 14:23 -12.77898 -57.07985 32024 ft 470 kts 315°
2026-05-04 14:24 -12.73183 -57.12636 32022 ft 470 kts 315°
2026-05-04 14:24 -12.68476 -57.17277 32019 ft 469 kts 315°
2026-05-04 14:25 -12.63775 -57.21909 32024 ft 470 kts 315°
2026-05-04 14:25 -12.56686 -57.28892 32021 ft 472 kts 315°
2026-05-04 14:26 -12.51955 -57.33549 32019 ft 471 kts 315°
2026-05-04 14:26 -12.47229 -57.38198 32020 ft 472 kts 316°
2026-05-04 14:27 -12.42499 -57.42848 32017 ft 470 kts 316°
2026-05-04 14:27 -12.37817 -57.47449 32022 ft 470 kts 316°
2026-05-04 14:28 -12.33090 -57.52092 32014 ft 471 kts 316°
2026-05-04 14:28 -12.28369 -57.56726 32015 ft 471 kts 316°
2026-05-04 14:29 -12.18901 -57.66010 32018 ft 471 kts 316°
2026-05-04 14:30 -12.14163 -57.70652 32014 ft 471 kts 316°
2026-05-04 14:31 -12.07072 -57.77595 32011 ft 471 kts 316°
2026-05-04 14:32 -11.97624 -57.86838 32011 ft 472 kts 316°
2026-05-04 14:32 -11.92890 -57.91464 32012 ft 472 kts 316°
2026-05-04 14:33 -11.88148 -57.96097 32007 ft 471 kts 316°
2026-05-04 14:33 -11.83406 -58.00727 32013 ft 471 kts 316°
2026-05-04 14:34 -11.78665 -58.05355 32010 ft 472 kts 316°
2026-05-04 14:34 -11.73922 -58.09982 32008 ft 472 kts 316°
2026-05-04 14:35 -11.69178 -58.14608 32008 ft 472 kts 316°
2026-05-04 14:35 -11.64433 -58.19231 32013 ft 472 kts 316°
2026-05-04 14:36 -11.59681 -58.23860 32015 ft 472 kts 316°
2026-05-04 14:36 -11.54937 -58.28478 32012 ft 471 kts 316°
2026-05-04 14:37 -11.50223 -58.33065 32007 ft 472 kts 316°
2026-05-04 14:37 -11.45464 -58.37694 32009 ft 472 kts 316°
2026-05-04 14:38 -11.40727 -58.42299 32008 ft 472 kts 316°
2026-05-04 14:38 -11.35985 -58.46906 32013 ft 472 kts 316°
2026-05-04 14:39 -11.31236 -58.51519 32011 ft 472 kts 316°
2026-05-04 14:39 -11.26481 -58.56135 32010 ft 472 kts 316°
2026-05-04 14:40 -11.19348 -58.63054 32014 ft 473 kts 316°
2026-05-04 14:40 -11.14623 -58.67636 32012 ft 472 kts 316°
2026-05-04 14:41 -11.09867 -58.72245 32012 ft 472 kts 316°
2026-05-04 14:42 -11.00350 -58.81461 32012 ft 472 kts 316°
2026-05-04 14:42 -10.95591 -58.86066 32009 ft 473 kts 316°
2026-05-04 14:43 -10.90814 -58.90687 32011 ft 474 kts 316°
2026-05-04 14:43 -10.86047 -58.95295 32012 ft 473 kts 316°
2026-05-04 14:44 -10.81272 -58.99910 32013 ft 473 kts 317°
2026-05-04 14:44 -10.76502 -59.04518 32012 ft 473 kts 316°
2026-05-04 14:45 -10.71727 -59.09128 32014 ft 473 kts 316°
2026-05-04 14:45 -10.66989 -59.13700 32010 ft 474 kts 316°
2026-05-04 14:46 -10.62202 -59.18318 32005 ft 474 kts 317°
2026-05-04 14:46 -10.57411 -59.22938 32013 ft 474 kts 317°
2026-05-04 14:47 -10.52619 -59.27557 32009 ft 474 kts 316°
2026-05-04 14:47 -10.48672 -59.31398 32009 ft 474 kts 316°
2026-05-04 14:48 -10.43906 -59.36037 32006 ft 474 kts 316°
2026-05-04 14:48 -10.39148 -59.40665 32007 ft 474 kts 316°
2026-05-04 14:49 -10.34379 -59.45303 32009 ft 475 kts 316°
2026-05-04 14:49 -10.29612 -59.49936 32006 ft 475 kts 316°
2026-05-04 14:50 -10.24838 -59.54574 32007 ft 475 kts 316°
2026-05-04 14:50 -10.20097 -59.59178 32011 ft 475 kts 316°
2026-05-04 14:51 -10.15299 -59.63835 32000 ft 474 kts 316°
2026-05-04 14:51 -10.10573 -59.68419 32006 ft 474 kts 316°
2026-05-04 14:52 -10.05806 -59.73043 32005 ft 474 kts 316°
2026-05-04 14:52 -10.01039 -59.77664 32004 ft 474 kts 316°
2026-05-04 14:53 -9.96301 -59.82255 32005 ft 474 kts 316°
2026-05-04 14:53 -9.91544 -59.86862 32002 ft 473 kts 316°
2026-05-04 14:54 -9.86778 -59.91477 32003 ft 473 kts 316°
2026-05-04 14:54 -9.82025 -59.96077 31999 ft 472 kts 316°
2026-05-04 14:55 -9.77307 -60.00640 32002 ft 472 kts 316°
2026-05-04 14:55 -9.72554 -60.05235 32001 ft 472 kts 316°
2026-05-04 14:56 -9.67801 -60.09830 32001 ft 472 kts 316°
2026-05-04 14:56 -9.63046 -60.14424 32001 ft 472 kts 316°
2026-05-04 14:57 -9.58299 -60.19008 32001 ft 472 kts 316°
2026-05-04 14:57 -9.53547 -60.23596 32002 ft 472 kts 316°
2026-05-04 14:58 -9.48796 -60.28180 31999 ft 472 kts 316°
2026-05-04 14:58 -9.44036 -60.32771 32003 ft 472 kts 316°
2026-05-04 14:59 -9.39287 -60.37350 32001 ft 472 kts 316°
2026-05-04 15:00 -9.32145 -60.44233 32002 ft 472 kts 316°
2026-05-04 15:00 -9.27389 -60.48813 32006 ft 472 kts 316°
2026-05-04 15:01 -9.20254 -60.55683 32006 ft 472 kts 316°
2026-05-04 15:01 -9.15527 -60.60231 32008 ft 472 kts 316°
2026-05-04 15:02 -9.10767 -60.64811 32005 ft 473 kts 316°
2026-05-04 15:02 -9.05996 -60.69399 32007 ft 473 kts 316°
2026-05-04 15:03 -9.01240 -60.73970 32002 ft 473 kts 316°
2026-05-04 15:03 -8.96466 -60.78556 32004 ft 472 kts 316°
2026-05-04 15:04 -8.91712 -60.83121 32006 ft 472 kts 317°
2026-05-04 15:04 -8.86948 -60.87696 32004 ft 472 kts 317°
2026-05-04 15:05 -8.82185 -60.92267 32006 ft 473 kts 317°
2026-05-04 15:05 -8.77418 -60.96840 32000 ft 471 kts 317°
2026-05-04 15:06 -8.72685 -61.01380 32007 ft 472 kts 317°
2026-05-04 15:07 -8.65553 -61.08216 32009 ft 471 kts 317°
2026-05-04 15:07 -8.60794 -61.12774 32004 ft 471 kts 317°
2026-05-04 15:08 -8.56047 -61.17322 32003 ft 472 kts 317°
2026-05-04 15:08 -8.51277 -61.21889 32005 ft 472 kts 317°
2026-05-04 15:09 -8.46516 -61.26447 32003 ft 471 kts 317°
2026-05-04 15:09 -8.41750 -61.31007 32004 ft 472 kts 317°
2026-05-04 15:10 -8.34607 -61.37834 32001 ft 470 kts 317°
2026-05-04 15:11 -8.27473 -61.44646 32001 ft 471 kts 317°
2026-05-04 15:11 -8.22708 -61.49195 32003 ft 471 kts 317°
2026-05-04 15:12 -8.17976 -61.53710 32003 ft 471 kts 317°
2026-05-04 15:12 -8.13220 -61.58247 32000 ft 471 kts 317°
2026-05-04 15:13 -8.08456 -61.62791 32003 ft 471 kts 317°
2026-05-04 15:13 -8.03711 -61.67313 31999 ft 471 kts 317°
2026-05-04 15:14 -7.98953 -61.71848 32006 ft 469 kts 317°
2026-05-04 15:14 -7.94227 -61.76350 32000 ft 467 kts 317°
2026-05-04 15:15 -7.89521 -61.80832 32006 ft 468 kts 317°
2026-05-04 15:15 -7.84793 -61.85333 32004 ft 467 kts 317°
2026-05-04 15:16 -7.77705 -61.92077 32006 ft 467 kts 317°
2026-05-04 15:17 -7.70603 -61.98833 32001 ft 469 kts 317°
2026-05-04 15:17 -7.63500 -62.05586 32000 ft 467 kts 317°
2026-05-04 15:18 -7.58813 -62.10040 32001 ft 466 kts 317°
2026-05-04 15:19 -7.51727 -62.16772 32000 ft 466 kts 317°
2026-05-04 15:19 -7.44631 -62.23509 32001 ft 466 kts 317°
2026-05-04 15:20 -7.39918 -62.27982 32000 ft 466 kts 317°
2026-05-04 15:20 -7.35183 -62.32475 32003 ft 468 kts 317°
2026-05-04 15:21 -7.30476 -62.36940 31998 ft 467 kts 317°
2026-05-04 15:22 -7.23372 -62.43676 32002 ft 467 kts 317°
2026-05-04 15:22 -7.16305 -62.50373 31997 ft 467 kts 317°
2026-05-04 15:23 -7.11566 -62.54863 31998 ft 467 kts 318°
2026-05-04 15:23 -7.06819 -62.59360 31998 ft 467 kts 318°
2026-05-04 15:24 -6.97374 -62.68301 31996 ft 467 kts 318°
2026-05-04 15:25 -6.92632 -62.72790 32001 ft 467 kts 318°
2026-05-04 15:26 -6.85538 -62.79502 31990 ft 467 kts 317°
2026-05-04 15:26 -6.78441 -62.86215 31997 ft 467 kts 318°
2026-05-04 15:27 -6.71374 -62.92897 31994 ft 465 kts 317°
2026-05-04 15:28 -6.64277 -62.99604 31995 ft 466 kts 318°
2026-05-04 15:29 -6.57216 -63.06275 31998 ft 465 kts 318°
2026-05-04 15:30 -6.40713 -63.21854 32000 ft 465 kts 318°
2026-05-04 15:31 -6.33638 -63.28529 32001 ft 465 kts 318°
2026-05-04 15:32 -6.21870 -63.39625 32004 ft 465 kts 318°
2026-05-04 15:34 -6.10876 -63.49984 32002 ft 465 kts 318°
2026-05-04 15:34 -6.03765 -63.56684 32003 ft 467 kts 318°
2026-05-04 15:35 -5.96667 -63.63369 32001 ft 467 kts 318°
2026-05-04 15:36 -5.89546 -63.70073 32000 ft 466 kts 318°
2026-05-04 15:36 -5.84839 -63.74503 32005 ft 467 kts 318°
2026-05-04 15:37 -5.80109 -63.78952 32000 ft 465 kts 318°
2026-05-04 15:37 -5.75398 -63.83382 31996 ft 464 kts 318°
2026-05-04 15:38 -5.70688 -63.87814 32000 ft 464 kts 318°
2026-05-04 15:38 -5.65966 -63.92253 31998 ft 464 kts 318°
2026-05-04 15:39 -5.61250 -63.96686 32001 ft 464 kts 318°
2026-05-04 15:40 -5.54205 -64.03306 32005 ft 464 kts 319°
2026-05-04 15:40 -5.49484 -64.07739 32005 ft 463 kts 318°
2026-05-04 15:41 -5.44772 -64.12162 32001 ft 462 kts 318°
2026-05-04 15:41 -5.40112 -64.16534 32002 ft 462 kts 318°
2026-05-04 15:42 -5.35384 -64.20968 32001 ft 462 kts 319°
2026-05-04 15:42 -5.30667 -64.25360 31999 ft 462 kts 321°
2026-05-04 15:43 -5.25788 -64.29553 32002 ft 462 kts 321°
2026-05-04 15:43 -5.20937 -64.33756 32005 ft 462 kts 320°
2026-05-04 15:44 -5.16078 -64.37968 32004 ft 461 kts 320°
2026-05-04 15:44 -5.11257 -64.42145 32003 ft 462 kts 321°
2026-05-04 15:45 -5.06395 -64.46360 32003 ft 462 kts 321°
2026-05-04 15:45 -5.01538 -64.50566 32001 ft 462 kts 320°
2026-05-04 15:46 -4.96676 -64.54777 32000 ft 462 kts 321°
2026-05-04 15:46 -4.91815 -64.58987 32001 ft 462 kts 320°
2026-05-04 15:47 -4.86952 -64.63196 31999 ft 462 kts 321°
2026-05-04 15:47 -4.82099 -64.67398 31994 ft 462 kts 321°
2026-05-04 15:48 -4.77218 -64.71622 32002 ft 464 kts 321°
2026-05-04 15:48 -4.69893 -64.77959 31995 ft 464 kts 320°
2026-05-04 15:49 -4.65016 -64.82176 31992 ft 463 kts 320°
2026-05-04 15:49 -4.60133 -64.86399 31993 ft 464 kts 320°
2026-05-04 15:50 -4.55246 -64.90625 31992 ft 464 kts 321°
2026-05-04 15:50 -4.50359 -64.94851 31995 ft 464 kts 320°
2026-05-04 15:51 -4.45477 -64.99071 31994 ft 465 kts 320°
2026-05-04 15:51 -4.40581 -65.03300 31995 ft 464 kts 320°
2026-05-04 15:52 -4.35693 -65.07524 31996 ft 465 kts 321°
2026-05-04 15:52 -4.30794 -65.11756 31994 ft 465 kts 321°
2026-05-04 15:53 -4.25925 -65.15960 31995 ft 465 kts 321°
2026-05-04 15:53 -4.21026 -65.20187 31995 ft 464 kts 320°
2026-05-04 15:54 -4.16131 -65.24409 31995 ft 464 kts 320°
2026-05-04 15:54 -4.11238 -65.28628 31991 ft 464 kts 320°
2026-05-04 15:55 -4.06387 -65.32813 31996 ft 465 kts 320°
2026-05-04 15:55 -4.01478 -65.37045 31996 ft 466 kts 321°
2026-05-04 15:56 -3.96568 -65.41277 31994 ft 465 kts 321°
2026-05-04 15:56 -3.91664 -65.45503 31994 ft 465 kts 320°
2026-05-04 15:57 -3.86773 -65.49719 31991 ft 464 kts 321°
2026-05-04 15:57 -3.81872 -65.53941 31996 ft 465 kts 320°
2026-05-04 15:58 -3.76966 -65.58168 31993 ft 466 kts 321°
2026-05-04 15:58 -3.72054 -65.62399 31997 ft 465 kts 321°
2026-05-04 15:59 -3.67156 -65.66617 31999 ft 464 kts 320°
2026-05-04 15:59 -3.62267 -65.70827 31996 ft 464 kts 320°
2026-05-04 16:00 -3.57371 -65.75042 31998 ft 464 kts 320°
2026-05-04 16:00 -3.52709 -65.79512 32006 ft 465 kts 316°
2026-05-04 16:01 -3.48149 -65.84114 31997 ft 466 kts 316°
2026-05-04 16:01 -3.43569 -65.88693 31992 ft 465 kts 316°
2026-05-04 16:02 -3.38992 -65.93266 31994 ft 466 kts 316°
2026-05-04 16:03 -3.32139 -66.00111 31993 ft 464 kts 316°
2026-05-04 16:03 -3.27572 -66.04671 31994 ft 464 kts 316°
2026-05-04 16:04 -3.23007 -66.09228 31992 ft 463 kts 316°
2026-05-04 16:04 -3.16169 -66.16055 31990 ft 463 kts 316°
2026-05-04 16:05 -3.11605 -66.20611 31990 ft 464 kts 316°
2026-05-04 16:06 -3.04743 -66.27459 31992 ft 464 kts 317°
2026-05-04 16:07 -2.95645 -66.36537 31991 ft 464 kts 317°
2026-05-04 16:08 -2.86483 -66.45676 31990 ft 463 kts 317°
2026-05-04 16:09 -2.75081 -66.57046 31992 ft 467 kts 316°
2026-05-04 16:10 -2.65880 -66.66220 31989 ft 467 kts 317°
2026-05-04 16:11 -2.56680 -66.75403 31988 ft 467 kts 317°
2026-05-04 16:12 -2.42887 -66.89168 31987 ft 467 kts 316°
2026-05-04 16:13 -2.33729 -66.98303 31986 ft 467 kts 316°
2026-05-04 16:14 -2.24126 -67.07028 31987 ft 466 kts 320°
2026-05-04 16:16 -2.12060 -67.17861 31986 ft 466 kts 320°
2026-05-04 16:17 -1.99981 -67.28704 31985 ft 467 kts 320°
2026-05-04 16:18 -1.90321 -67.37376 31985 ft 467 kts 320°
2026-05-04 16:19 -1.78236 -67.48221 31984 ft 467 kts 320°
2026-05-04 16:20 -1.66171 -67.59046 31988 ft 466 kts 319°
2026-05-04 16:22 -1.54916 -67.69143 31986 ft 466 kts 319°
2026-05-04 16:23 -1.40447 -67.82123 31985 ft 466 kts 319°
2026-05-04 16:25 -1.25941 -67.95131 31985 ft 467 kts 319°
2026-05-04 16:26 -1.09033 -68.10292 31985 ft 467 kts 319°
2026-05-04 16:28 -0.96954 -68.21121 31982 ft 467 kts 319°
2026-05-04 16:29 -0.80034 -68.36288 31985 ft 468 kts 319°
2026-05-04 16:31 -0.67955 -68.47116 31988 ft 467 kts 319°
2026-05-04 16:32 -0.53438 -68.60127 31985 ft 468 kts 319°
2026-05-04 16:33 -0.43746 -68.68813 31985 ft 468 kts 319°
2026-05-04 16:34 -0.36483 -68.75322 31982 ft 468 kts 319°
2026-05-04 16:35 -0.21955 -68.88341 31978 ft 468 kts 319°
2026-05-04 16:36 -0.14698 -68.94845 31980 ft 469 kts 319°
2026-05-04 16:37 -0.07417 -69.01369 31984 ft 469 kts 319°
2026-05-04 16:38 0.02284 -69.10063 31990 ft 469 kts 319°
2026-05-04 16:39 0.14408 -69.20927 31984 ft 469 kts 319°
2026-05-04 16:40 0.24145 -69.29654 32029 ft 469 kts 319°
2026-05-04 16:41 0.28979 -69.33985 32662 ft 465 kts 319°
2026-05-04 16:41 0.36217 -69.40472 33621 ft 457 kts 320°
2026-05-04 16:42 0.43017 -69.46567 35532 ft 419 kts 320°
2026-05-04 16:43 0.47442 -69.50532 35346 ft 433 kts 320°
2026-05-04 16:43 0.51903 -69.54530 35615 ft 434 kts 320°
2026-05-04 16:43 0.54170 -69.56562 35524 ft 441 kts 320°
2026-05-04 16:44 0.63500 -69.64923 35530 ft 459 kts 320°
2026-05-04 16:45 0.68448 -69.69019 35518 ft 467 kts 326°
2026-05-04 16:46 0.76336 -69.74878 35841 ft 472 kts 325°
2026-05-04 16:46 0.81579 -69.78824 35998 ft 472 kts 325°
2026-05-04 16:47 0.92021 -69.86688 35982 ft 470 kts 325°
2026-05-04 16:48 1.02473 -69.94560 35984 ft 470 kts 325°
2026-05-04 16:49 1.12884 -70.02402 36000 ft 470 kts 324°
2026-05-04 16:50 1.23332 -70.10272 36016 ft 470 kts 324°
2026-05-04 16:51 1.31164 -70.16172 36014 ft 470 kts 324°
2026-05-04 16:52 1.41627 -70.24054 35984 ft 472 kts 324°
2026-05-04 16:53 1.49494 -70.29983 35978 ft 471 kts 324°
2026-05-04 16:54 1.59966 -70.37874 35986 ft 472 kts 324°
2026-05-04 16:55 1.75679 -70.49717 35983 ft 472 kts 324°
2026-05-04 16:56 1.88735 -70.59559 35979 ft 471 kts 324°
2026-05-04 16:57 1.96579 -70.65473 35997 ft 472 kts 324°
2026-05-04 16:58 2.07037 -70.73359 35979 ft 472 kts 324°
2026-05-04 17:00 2.22727 -70.85192 35979 ft 470 kts 324°
2026-05-04 17:00 2.29969 -70.91694 35961 ft 469 kts 301°
2026-05-04 17:01 2.33142 -70.97427 35957 ft 472 kts 298°
2026-05-04 17:02 2.39257 -71.09054 35982 ft 472 kts 298°
2026-05-04 17:03 2.43807 -71.17786 35982 ft 472 kts 298°
2026-05-04 17:03 2.48361 -71.26528 35982 ft 473 kts 298°
2026-05-04 17:04 2.54426 -71.38174 35981 ft 472 kts 297°
2026-05-04 17:05 2.60491 -71.49821 35990 ft 472 kts 297°
2026-05-04 17:06 2.65016 -71.58515 35985 ft 471 kts 297°
2026-05-04 17:07 2.68547 -71.65299 35985 ft 470 kts 297°
2026-05-04 17:07 2.72080 -71.72089 35984 ft 471 kts 297°
2026-05-04 17:08 2.77096 -71.81730 36005 ft 471 kts 297°
2026-05-04 17:09 2.80113 -71.87532 35980 ft 470 kts 297°
2026-05-04 17:09 2.82644 -71.92398 35986 ft 471 kts 298°
2026-05-04 17:10 2.90168 -72.06869 35987 ft 469 kts 298°
2026-05-04 17:11 2.93177 -72.12658 36004 ft 468 kts 298°
2026-05-04 17:12 2.97680 -72.21323 35999 ft 468 kts 298°
2026-05-04 17:13 3.05185 -72.35767 36007 ft 468 kts 298°
2026-05-04 17:14 3.11183 -72.47315 36031 ft 468 kts 298°
2026-05-04 17:15 3.16267 -72.55590 36067 ft 464 kts 310°
2026-05-04 17:16 3.24514 -72.65633 36052 ft 468 kts 310°
2026-05-04 17:17 3.32778 -72.75630 36059 ft 468 kts 310°
2026-05-04 17:18 3.41075 -72.85668 36083 ft 468 kts 310°
2026-05-04 17:19 3.49372 -72.95706 36097 ft 468 kts 310°
2026-05-04 17:20 3.57662 -73.05746 36101 ft 470 kts 310°
2026-05-04 17:20 3.63899 -73.13298 36110 ft 469 kts 310°
2026-05-04 17:21 3.72196 -73.23348 36130 ft 467 kts 310°
2026-05-04 17:22 3.76333 -73.28361 36129 ft 468 kts 310°
2026-05-04 17:23 3.84623 -73.38407 36154 ft 468 kts 310°
2026-05-04 17:24 3.90834 -73.45938 36131 ft 468 kts 310°
2026-05-04 17:25 3.99096 -73.55955 36101 ft 469 kts 310°
2026-05-04 17:26 4.07377 -73.66001 36052 ft 466 kts 310°
2026-05-04 17:27 4.17755 -73.78595 36110 ft 469 kts 310°
2026-05-04 17:28 4.26041 -73.88654 36347 ft 470 kts 310°
2026-05-04 17:29 4.38520 -74.03811 36372 ft 472 kts 310°
2026-05-04 17:31 4.48873 -74.16393 36389 ft 468 kts 310°
2026-05-04 17:32 4.59145 -74.28879 36364 ft 466 kts 310°
2026-05-04 17:33 4.67309 -74.38993 36318 ft 465 kts 309°
2026-05-04 17:34 4.75455 -74.49088 36259 ft 466 kts 309°
2026-05-04 17:35 4.85656 -74.61737 36199 ft 467 kts 309°
2026-05-04 17:36 4.89709 -74.66764 36196 ft 465 kts 309°
2026-05-04 17:36 4.93479 -74.72051 36168 ft 466 kts 306°
2026-05-04 17:37 4.97246 -74.77380 36119 ft 468 kts 306°
2026-05-04 17:37 5.01012 -74.82682 36071 ft 468 kts 306°
2026-05-04 17:38 5.04796 -74.88012 36031 ft 469 kts 306°
2026-05-04 17:38 5.08548 -74.93298 36005 ft 466 kts 306°
2026-05-04 17:39 5.14196 -75.01256 36207 ft 469 kts 306°
2026-05-04 17:39 5.17991 -75.06607 36210 ft 469 kts 306°
2026-05-04 17:40 5.21785 -75.11957 36245 ft 472 kts 306°
2026-05-04 17:40 5.25592 -75.17326 36243 ft 470 kts 306°
2026-05-04 17:41 5.29350 -75.22627 36262 ft 471 kts 306°
2026-05-04 17:41 5.33154 -75.27995 36243 ft 470 kts 306°
2026-05-04 17:42 5.36928 -75.33320 36239 ft 468 kts 306°
2026-05-04 17:42 5.40714 -75.38666 36241 ft 471 kts 306°
2026-05-04 17:43 5.44512 -75.44027 36245 ft 471 kts 306°
2026-05-04 17:43 5.48290 -75.49362 36195 ft 468 kts 306°
2026-05-04 17:44 5.52066 -75.54699 36217 ft 468 kts 306°
2026-05-04 17:44 5.55840 -75.60032 36207 ft 468 kts 306°
2026-05-04 17:45 5.59602 -75.65349 36185 ft 467 kts 306°
2026-05-04 17:45 5.63348 -75.70646 36161 ft 470 kts 306°
2026-05-04 17:46 5.67148 -75.76018 36160 ft 471 kts 306°
2026-05-04 17:46 5.70967 -75.81377 36158 ft 470 kts 310°
2026-05-04 17:47 5.75190 -75.86344 36156 ft 469 kts 310°
2026-05-04 17:47 5.79382 -75.91364 36152 ft 469 kts 310°
2026-05-04 17:48 5.83572 -75.96403 36148 ft 469 kts 310°
2026-05-04 17:48 5.87728 -76.01404 36147 ft 469 kts 310°
2026-05-04 17:49 5.91901 -76.06425 36134 ft 469 kts 310°
2026-05-04 17:49 5.96078 -76.11453 36123 ft 469 kts 310°
2026-05-04 17:50 6.00257 -76.16486 36124 ft 470 kts 310°
2026-05-04 17:50 6.04442 -76.21527 36120 ft 471 kts 310°
2026-05-04 17:51 6.08654 -76.26602 36104 ft 473 kts 310°
2026-05-04 17:51 6.12872 -76.31685 36118 ft 472 kts 310°
2026-05-04 17:52 6.17060 -76.36732 36066 ft 471 kts 310°
2026-05-04 17:52 6.21251 -76.41787 36081 ft 469 kts 310°
2026-05-04 17:53 6.25417 -76.46810 36064 ft 468 kts 310°
2026-05-04 17:53 6.28898 -76.51011 36039 ft 472 kts 310°
2026-05-04 17:54 6.33075 -76.56051 36024 ft 468 kts 309°
2026-05-04 17:54 6.37917 -76.61896 36021 ft 469 kts 309°
2026-05-04 17:55 6.41412 -76.66116 35991 ft 469 kts 309°
2026-05-04 17:55 6.45577 -76.71146 35989 ft 468 kts 309°
2026-05-04 17:56 6.49746 -76.76182 35991 ft 468 kts 309°
2026-05-04 17:56 6.53903 -76.81205 35960 ft 468 kts 309°
2026-05-04 17:57 6.58071 -76.86243 35966 ft 469 kts 309°
2026-05-04 17:57 6.62238 -76.91282 35963 ft 469 kts 309°
2026-05-04 17:58 6.66381 -76.96292 35947 ft 468 kts 309°
2026-05-04 17:58 6.70550 -77.01336 35935 ft 472 kts 309°
2026-05-04 17:59 6.74751 -77.06420 35933 ft 472 kts 309°
2026-05-04 18:00 6.81047 -77.14043 35925 ft 472 kts 309°
2026-05-04 18:00 6.85242 -77.19123 35919 ft 472 kts 309°
2026-05-04 18:01 6.89417 -77.24181 35924 ft 472 kts 309°
2026-05-04 18:01 6.93594 -77.29242 35929 ft 470 kts 309°
2026-05-04 18:02 6.99862 -77.36841 35920 ft 470 kts 309°
2026-05-04 18:02 7.04027 -77.41891 35920 ft 470 kts 309°
2026-05-04 18:03 7.08199 -77.46953 35922 ft 470 kts 309°
2026-05-04 18:03 7.12373 -77.52018 35919 ft 470 kts 309°
2026-05-04 18:04 7.16512 -77.57042 35924 ft 469 kts 309°
2026-05-04 18:05 7.22771 -77.64642 35919 ft 470 kts 309°
2026-05-04 18:05 7.26940 -77.69707 35922 ft 470 kts 309°
2026-05-04 18:06 7.33201 -77.77315 35924 ft 470 kts 309°
2026-05-04 18:06 7.37379 -77.82395 35918 ft 470 kts 309°
2026-05-04 18:07 7.41651 -77.87368 35877 ft 463 kts 310°
2026-05-04 18:07 7.43749 -77.89799 35552 ft 456 kts 310°
2026-05-04 18:07 7.45830 -77.92212 34989 ft 456 kts 310°
2026-05-04 18:08 7.47914 -77.94629 34376 ft 457 kts 310°
2026-05-04 18:08 7.49986 -77.97034 33886 ft 455 kts 311°
2026-05-04 18:08 7.52053 -77.99432 33365 ft 453 kts 311°
2026-05-04 18:08 7.54115 -78.01826 32858 ft 450 kts 311°
2026-05-04 18:09 7.58199 -78.06568 31896 ft 444 kts 311°
2026-05-04 18:09 7.62206 -78.11222 30955 ft 440 kts 312°
2026-05-04 18:10 7.64231 -78.13576 30477 ft 438 kts 312°
2026-05-04 18:10 7.66193 -78.15857 30006 ft 436 kts 312°
2026-05-04 18:10 7.68179 -78.18164 29394 ft 434 kts 312°
2026-05-04 18:10 7.70148 -78.20453 28799 ft 429 kts 312°
2026-05-04 18:11 7.72088 -78.22709 28369 ft 421 kts 312°
2026-05-04 18:11 7.73999 -78.24930 28004 ft 417 kts 312°
2026-05-04 18:11 7.75898 -78.27138 27544 ft 415 kts 312°
2026-05-04 18:11 7.77787 -78.29336 27105 ft 412 kts 312°
2026-05-04 18:12 7.79662 -78.31517 26681 ft 410 kts 312°
2026-05-04 18:12 7.81513 -78.33671 26254 ft 407 kts 312°
2026-05-04 18:12 7.83368 -78.35829 25823 ft 406 kts 312°
2026-05-04 18:12 7.85209 -78.37972 25392 ft 404 kts 312°
2026-05-04 18:13 7.87045 -78.40108 24971 ft 402 kts 311°
2026-05-04 18:13 7.88872 -78.42234 24552 ft 400 kts 312°
2026-05-04 18:13 7.92508 -78.46469 23732 ft 397 kts 311°
2026-05-04 18:14 7.94315 -78.48574 23299 ft 396 kts 311°
2026-05-04 18:14 7.96117 -78.50671 22833 ft 394 kts 312°
2026-05-04 18:14 7.97896 -78.52744 22427 ft 391 kts 311°
2026-05-04 18:15 8.01406 -78.56834 21647 ft 385 kts 312°
2026-05-04 18:15 8.04891 -78.60896 20886 ft 380 kts 312°
2026-05-04 18:15 8.06616 -78.62906 20512 ft 377 kts 312°
2026-05-04 18:16 8.08330 -78.64906 20142 ft 375 kts 312°
2026-05-04 18:16 8.10033 -78.66891 19774 ft 373 kts 312°
2026-05-04 18:16 8.11726 -78.68867 19412 ft 371 kts 312°
2026-05-04 18:17 8.15083 -78.72781 18693 ft 368 kts 312°
2026-05-04 18:17 8.16754 -78.74732 18340 ft 366 kts 312°
2026-05-04 18:17 8.20056 -78.78585 17581 ft 362 kts 312°
2026-05-04 18:18 8.21695 -78.80497 17270 ft 358 kts 312°
2026-05-04 18:18 8.23323 -78.82382 16956 ft 354 kts 315°
2026-05-04 18:18 8.25124 -78.84073 16563 ft 351 kts 319°
2026-05-04 18:18 8.26902 -78.85716 16237 ft 349 kts 319°
2026-05-04 18:19 8.30432 -78.89033 15558 ft 344 kts 318°
2026-05-04 18:19 8.32160 -78.90669 15217 ft 342 kts 318°
2026-05-04 18:19 8.33894 -78.92315 14863 ft 341 kts 318°
2026-05-04 18:20 8.35617 -78.93952 14527 ft 339 kts 318°
2026-05-04 18:20 8.37332 -78.95581 14190 ft 338 kts 318°
2026-05-04 18:20 8.39040 -78.97205 13857 ft 336 kts 318°
2026-05-04 18:20 8.40738 -78.98818 13478 ft 335 kts 318°
2026-05-04 18:21 8.42434 -79.00431 12881 ft 334 kts 318°
2026-05-04 18:21 8.44116 -79.02030 12349 ft 330 kts 318°
2026-05-04 18:21 8.45765 -79.03597 11990 ft 320 kts 318°
2026-05-04 18:21 8.47351 -79.05107 11706 ft 308 kts 318°
2026-05-04 18:22 8.48872 -79.06553 11436 ft 300 kts 318°
2026-05-04 18:22 8.50396 -79.08002 11157 ft 297 kts 318°
2026-05-04 18:22 8.51878 -79.09412 10864 ft 296 kts 318°
2026-05-04 18:22 8.53388 -79.10849 10597 ft 300 kts 318°
2026-05-04 18:23 8.54923 -79.12310 10301 ft 305 kts 318°
2026-05-04 18:23 8.56464 -79.13776 10105 ft 301 kts 318°
2026-05-04 18:23 8.57978 -79.15217 9914 ft 298 kts 318°
2026-05-04 18:23 8.59487 -79.16654 9622 ft 298 kts 318°
2026-05-04 18:24 8.60992 -79.18086 9288 ft 296 kts 318°
2026-05-04 18:24 8.62488 -79.19511 8979 ft 294 kts 318°
2026-05-04 18:24 8.63962 -79.20915 8688 ft 292 kts 318°
2026-05-04 18:24 8.65433 -79.22315 8399 ft 290 kts 318°
2026-05-04 18:25 8.66896 -79.23708 8101 ft 288 kts 318°
2026-05-04 18:25 8.68269 -79.25172 7755 ft 289 kts 310°
2026-05-04 18:25 8.69528 -79.26772 7332 ft 293 kts 310°
2026-05-04 18:25 8.70799 -79.28361 6927 ft 296 kts 310°
2026-05-04 18:26 8.72108 -79.29980 6503 ft 299 kts 311°
2026-05-04 18:26 8.73441 -79.31619 6051 ft 303 kts 311°
2026-05-04 18:26 8.74787 -79.33267 5596 ft 306 kts 311°
2026-05-04 18:26 8.76150 -79.34931 5137 ft 306 kts 311°
2026-05-04 18:27 8.77499 -79.36577 4686 ft 302 kts 311°
2026-05-04 18:27 8.78827 -79.38198 4239 ft 297 kts 311°
2026-05-04 18:27 8.80134 -79.39793 3806 ft 292 kts 311°
2026-05-04 18:27 8.81438 -79.41333 3473 ft 283 kts 317°
2026-05-04 18:28 8.82856 -79.42624 3371 ft 264 kts 320°
2026-05-04 18:28 8.84173 -79.43813 3312 ft 245 kts 320°
2026-05-04 18:28 8.85395 -79.44929 3234 ft 228 kts 319°
2026-05-04 18:28 8.86533 -79.45976 3178 ft 215 kts 319°
2026-05-04 18:29 8.87614 -79.46959 3127 ft 202 kts 324°
2026-05-04 18:29 8.88852 -79.47458 3021 ft 187 kts 359°
2026-05-04 18:29 8.90116 -79.47296 2996 ft 187 kts 15°
2026-05-04 18:29 8.91373 -79.46837 2931 ft 196 kts 24°
2026-05-04 18:30 8.93663 -79.45564 2437 ft 172 kts 28°
2026-05-04 18:30 8.94695 -79.44976 2217 ft 170 kts 30°
2026-05-04 18:30 8.95720 -79.44392 2040 ft 165 kts 29°
2026-05-04 18:31 8.96700 -79.43836 1834 ft 159 kts 29°
2026-05-04 18:31 8.97649 -79.43297 1627 ft 155 kts 30°
2026-05-04 18:31 8.98584 -79.42766 1424 ft 156 kts 30°
2026-05-04 18:31 8.99518 -79.42235 1211 ft 153 kts 29°
2026-05-04 18:32 9.00432 -79.41717 1020 ft 149 kts 29°
2026-05-04 18:32 9.01335 -79.41204 842 ft 147 kts 27°
2026-05-04 18:32 9.02234 -79.40694 625 ft 148 kts 30°
2026-05-04 18:32 9.03130 -79.40192 452 ft 146 kts 29°
2026-05-04 18:33 9.04026 -79.39690 259 ft 147 kts 30°
2026-05-04 18:33 9.04897 -79.39192 64 ft 143 kts 30°
2026-05-04 18:33 9.05704 -79.38729 34 ft 121 kts 29°
2026-05-04 18:33 9.06298 -79.38395 33 ft 73 kts 30°
2026-05-04 18:34 9.06631 -79.38201 31 ft 37 kts 29°
2026-05-04 18:34 9.06825 -79.38093 32 ft 33 kts 29°
2026-05-04 18:34 9.07027 -79.37975 32 ft 35 kts 30°
2026-05-04 18:34 9.07160 -79.37944 32 ft 15 kts 312°
2026-05-04 18:35 9.07190 -79.38051 32 ft 17 kts 242°
2026-05-04 18:35 9.07129 -79.38101 32 ft 0 kts 210°
2026-05-04 18:35 9.07128 -79.38101 32 ft 0 kts 210°
2026-05-04 18:35 9.07126 -79.38103 32 ft 2 kts 210°
2026-05-04 18:36 9.07074 -79.38134 32 ft 16 kts 210°
2026-05-04 18:36 9.06939 -79.38207 32 ft 27 kts 208°
2026-05-04 18:36 9.06764 -79.38300 32 ft 29 kts 208°
2026-05-04 18:36 9.06596 -79.38389 32 ft 27 kts 208°
2026-05-04 18:37 9.06431 -79.38484 32 ft 27 kts 211°
2026-05-04 18:37 9.06265 -79.38581 32 ft 28 kts 210°
2026-05-04 18:37 9.06091 -79.38682 32 ft 29 kts 210°
2026-05-04 18:37 9.05986 -79.38743 32 ft 14 kts 228°
2026-05-04 18:38 9.06014 -79.38831 32 ft 15 kts 302°
2026-05-04 18:38 9.06070 -79.38925 32 ft 16 kts 295°
2026-05-04 18:38 9.06028 -79.39012 32 ft 15 kts 213°
2026-05-04 18:38 9.05959 -79.39064 32 ft 5 kts 247°
2026-05-04 18:39 9.05964 -79.39079 32 ft 4 kts 312°
2026-05-04 18:39 9.05993 -79.39096 32 ft 4 kts 332°
2026-05-04 18:39 9.06018 -79.39111 32 ft 0 kts 326°